Location: Medlow Airstrip Trail, Medlow Bath NSW 2780, Australia
(33.6682°S, 150.3233°E)
Time: 00:59:07
(UTC+11:00)

Explorer 11/Cluster Stage 4 - Pass Details

Date: 29 September 2019
Orbit: 467 x 1259 km, 28.8° (Epoch: 21 October)

Event Time Altitude Azimuth Distance (km) Brightness Sun altitude
Rises 08:19:55 0° 282° (WNW) 2,621 8.9 31.9°
Reaches altitude 10° 08:22:02 10° 288° (WNW) 1,803 8.1 32.4°
Maximum altitude 08:26:00 46° 2° (N) 826 7.4 33.1°
Drops below altitude 10° 08:30:49 10° 74° (ENE) 2,189 10.3 34.1°
Sets 08:33:37 0° 80° (E) 3,256 10.7 34.6°
